Regional Weather Roundup
Issued by NWS

Home | Current Version | Previous Version | Text Only | Print | Product List | Glossary Off
Versions: 1 2 3 4 5 6 7 8 9 10 11 12 13 14 15 16 17 18 19 20 21 22 23 24 25 26 27 28 29 30 31 32 33 34 35 36 37 38 39 40 41 42 43 44 45 46 47 48 49 50

000
ASUS43 KIND 211909
RWRIN

WEATHER ROUNDUP FOR INDIANA
NATIONAL WEATHER SERVICE INDIANAPOLIS IN
300 PM EDT SUN SEP 21 2014

NOTE: "FAIR" INDICATES FEW OR NO CLOUDS BELOW 12,000 FEET WITH NO
SIGNIFICANT WEATHER AND/OR OBSTRUCTIONS TO VISIBILITY.

* - STATION DOES NOT REPORT WEATHER SUCH AS PRECIPITATION OR FOG.

+ - STATION NOT QUALITY CONTROLLED BY THE NATIONAL WEATHER SERVICE.
    USE DATA WITH CAUTION...ESPECIALLY DEWPOINT AND RELATIVE
    HUMIDITY OBSERVATIONS.

INZ001>003-010>013-019-020-212000-
NORTHWEST INDIANA

CITY           SKY/WX    TMP DP  RH WIND       PRES   REMARKS
GARY /AIRPORT/ RAIN      63  52  67 NW17G29   29.95R
KNOX *+        PTSUNNY   64  51  61 NW13G23   29.91R
LA PORTE +     CLOUDY    61  51  71 NW18G32   29.92R
MICHIGAN CITY+ CLOUDY    59  50  72 NW13G23   29.93R
MONTICELLO +   CLOUDY    62  51  66 NW17G23   29.92S
RENSSELAER +   CLOUDY    63  54  72 W10G16    29.94S
VALPARAISO     CLOUDY    63  50  62 NW15G28   29.93R

$$

LMZ046-743>745-212000-
SOUTHERN LAKE MICHIGAN

STATION/POSITION TIME  TEMP WIND        PRES
                       AIR  DIR/SP/G
                 (UTC) (F)  (DEG/KT/KT) (MB)
MICHIGAN CITY    1900   59  290/ 23/ 27   N/A

$$

INZ004-005-014>016-021>024-212000-
NORTH CENTRAL INDIANA

CITY           SKY/WX    TMP DP  RH WIND       PRES   REMARKS
GOSHEN         LGT RAIN N/A N/A N/A W18G26    29.86R
LOGANSPORT +   CLOUDY    63  48  59 NW14G23   29.92R
PERU/GRISSOM   CLOUDY    65  52  62 NW23G30   29.89R
ROCHESTER +    PTSUNNY   63  52  67 W15G21    29.90R
SOUTH BEND     LGT RAIN  59  55  87 NW20G28   29.90R FOG
WARSAW +       PTSUNNY   61  52  72 W20G29    29.87S

$$

INZ006>009-017-018-025>027-212000-
NORTHEAST INDIANA

CITY           SKY/WX    TMP DP  RH WIND       PRES   REMARKS
ANGOLA *+      PTSUNNY   61  52  72 NW15      29.81R
AUBURN +       MOSUNNY   63  52  67 W20G30    29.84R
FORT WAYNE     PTSUNNY   64  50  60 W20G32    29.85S
HUNTINGTON +   CLOUDY    62  50  65 NW10G20   29.86S

$$

INZ028-029-035-036-043>045-051>053-212000-
WEST CENTRAL INDIANA

CITY           SKY/WX    TMP DP  RH WIND       PRES   REMARKS
GREENCASTLE +  MOSUNNY   72  46  40 NW14G31   29.92R
LAFAYETTE      PTSUNNY   64  50  60 NW21G30   29.93R
TERRE HAUTE    MOSUNNY   74  46  36 NW16G29   29.92F

$$

INZ030>032-037>040-046>048-054>057-064-065-212000-
CENTRAL INDIANA

CITY           SKY/WX    TMP DP  RH WIND       PRES   REMARKS
CP ATTERBURY + PTSUNNY   73  48  40 W16G22    29.89F
COLUMBUS       MOSUNNY   75  48  38 NW16G23   29.90S
FRANKFORT +    SUNNY     69  52  54 NW24G30   29.93R
GREENWOOD *+   PTSUNNY   73  52  46 W16G28    29.90
INDIANAPOLIS   PTSUNNY   71  46  40 NW24G35   29.89S
-EAGLE CREEK   CLOUDY    72  48  42 NW21G31   29.89S
KOKOMO *+      CLOUDY    64  48  55 NW21G30   29.90R
MARION +       CLOUDY    67  47  48 NW14G31   29.89R
MT COMFORT *+  PTSUNNY   70  37  30 NW25      29.89R
SHELBYVILLE    MOSUNNY   75  49  39 NW20G30   29.87F
ZIONSVILLE +   MOSUNNY   70  47  43 NW21G28   29.91R

$$

INZ033-034-041-042-049-050-058-059-212000-
EAST CENTRAL INDIANA

CITY           SKY/WX    TMP DP  RH WIND       PRES   REMARKS
MUNCIE         MOSUNNY   70  49  47 W20G28    29.87R

$$

INZ060-061-067>069-081>083-085>088-212000-
SOUTHWEST INDIANA

CITY           SKY/WX    TMP DP  RH WIND       PRES   REMARKS
EVANSVILLE     SUNNY     78  50  37 NW17      29.96F
WASHINGTON +   SUNNY     77  49  36 W16G23    29.93S

$$

INZ062-063-066-070>080-084-089>092-212000-
SOUTH CENTRAL AND SOUTHEAST INDIANA

CITY           SKY/WX    TMP DP  RH WIND       PRES   REMARKS
BLOOMINGTON    MOSUNNY   72  48  42 W15G22    29.92F
SEYMOUR +      SUNNY     77  50  38 NW14G28   29.90

$$



USA.gov is the U.S. government's official web portal to all federal, state and local government web resources and services.